Weather History for Morrisville, VT

Change the Weather History Date:

Wednesday, January 15, 2014

  Actual Average Record
Temperature  
Mean Temperature 36 °F 16 °F  
Max Temperature 43 °F 26 °F 43 °F (2014)
Min Temperature 29 °F 5 °F -32 °F (2004)
Degree Days  
Heating Degree Days 29 50  
Month to date heating degree days 700 728  
Since 1 July heating degree days 3844 3866  
Cooling Degree Days 0 0  
Month to date cooling degree days 0 0  
Year to date cooling degree days 0 0  
Moisture  
Dew Point 29 °F    
Average Humidity 75    
Maximum Humidity 92    
Minimum Humidity 57    
Precipitation  
Precipitation 0.05 in 0.07 in 0.79 in (1999)
Month to date precipitation 2.00 1.34  
Year to date precipitation 2.00 1.34  
Sea Level Pressure  
Sea Level Pressure 29.90 in    
Wind  
Wind Speed 3 mph (North)    
Max Wind Speed 13 mph    
Max Gust Speed 18 mph    
Visibility 8 miles    
Events Rain , Snow    
T = Trace of Precipitation, MM = Missing Value Source: NWS Daily Summary

Daily Weather History Graph

Daily Weather History Graph

Search for Another Location

Airport:

Trip Planner

Search our weather history database for the weather conditions in past years. The results will help you decide how hot, cold, wet, or windy it might be!

Date:

Astronomy

Jan. 15, 2014 Rise Set
Actual Time 7:23 AM EST 4:36 PM EST
Civil Twilight 6:51 AM EST 5:09 PM EST
Nautical Twilight 6:15 AM EST 5:45 PM EST
Astronomical Twilight 5:40 AM EST 6:19 PM EST
Moon 4:34 PM EST (1/15) 6:35 AM EST (1/15)
Length of Visible Light 10h 17m
Length of Day
9h 12m
Full, 100% of the Moon is Illuminated
Jan 15
Full
Jan 15
Full
Jan 24
Last Quarter
Jan 30
New
Feb 6
First Quarter

Hourly Weather History & Observations

Time (EST) Temp. Windchill Dew Point Humidity Pressure Visibility Wind Dir Wind Speed Gust Speed Precip Events Conditions
12:01 AM 35.6 °F 29.9 °F 28.4 °F 75% 29.78 in 10.0 mi NW 6.9 mph 18.4 mph N/A   Overcast
12:54 AM 36.0 °F 31.1 °F 27.0 °F 70% 29.81 in 10.0 mi North 5.8 mph - N/A   Mostly Cloudy
1:54 AM 34.0 °F 28.8 °F 28.0 °F 79% 29.83 in 10.0 mi WNW 5.8 mph - N/A   Overcast
2:54 AM 33.1 °F - 28.0 °F 82% 29.87 in 10.0 mi Calm Calm - N/A   Overcast
3:54 AM 32.0 °F - 28.9 °F 88% 29.88 in 10.0 mi Calm Calm - N/A   Overcast
4:54 AM 30.9 °F - 28.0 °F 89% 29.87 in 9.0 mi Calm Calm - N/A   Mostly Cloudy
5:15 AM 30.2 °F - 26.6 °F 86% 29.85 in 5.0 mi Calm Calm - N/A   Partly Cloudy
5:54 AM 28.9 °F - 26.1 °F 89% 29.90 in 7.0 mi Calm Calm - N/A   Clear
6:54 AM 28.9 °F - 27.0 °F 92% 29.92 in 8.0 mi Calm Calm - N/A   Overcast
7:54 AM 28.9 °F - 27.0 °F 92% 29.93 in 7.0 mi Calm Calm - N/A   Clear
8:54 AM 30.0 °F 25.2 °F 28.0 °F 92% 29.95 in 7.0 mi South 4.6 mph - N/A   Clear
9:54 AM 35.1 °F - 28.0 °F 76% 29.94 in 10.0 mi Calm Calm - N/A   Clear
10:54 AM 37.0 °F 34.5 °F 28.9 °F 73% 29.92 in 10.0 mi ESE 3.5 mph - N/A   Clear
11:54 AM 39.9 °F - 28.9 °F 65% 29.91 in 10.0 mi Calm Calm - N/A   Clear
12:54 PM 42.1 °F 40.2 °F 28.0 °F 58% 29.88 in 10.0 mi SSW 3.5 mph - N/A   Clear
1:54 PM 42.1 °F 39.2 °F 28.9 °F 60% 29.87 in 10.0 mi South 4.6 mph - N/A   Overcast
2:54 PM 41.0 °F 38.0 °F 28.9 °F 62% 29.88 in 10.0 mi South 4.6 mph - N/A   Overcast
3:54 PM 39.0 °F - 30.9 °F 73% 29.88 in 10.0 mi Calm Calm - N/A   Overcast
4:54 PM 39.9 °F - 30.9 °F 70% 29.88 in 10.0 mi Calm Calm - N/A   Overcast
5:54 PM 39.0 °F - 30.9 °F 73% 29.90 in 10.0 mi Calm Calm - N/A   Overcast
6:54 PM 37.9 °F 35.5 °F 30.9 °F 76% 29.91 in 10.0 mi South 3.5 mph - 0.00 in Rain Light Rain
7:54 PM 36.0 °F - 32.0 °F 86% 29.92 in 8.0 mi Calm Calm - 0.00 in Rain Light Rain
8:28 PM 35.6 °F - 33.8 °F 93% 29.90 in 7.0 mi Calm Calm - 0.01 in Rain Light Rain
8:54 PM 36.0 °F - 33.1 °F 89% 29.93 in 5.0 mi Calm Calm - 0.02 in Rain Light Rain
9:16 PM 35.6 °F 32.8 °F 33.8 °F 93% 29.89 in 4.0 mi North 3.5 mph - 0.01 in Rain Light Rain
9:39 PM 33.8 °F 26.4 °F 30.2 °F 87% 29.90 in 2.5 mi North 9.2 mph - 0.02 in Snow Light Snow
9:50 PM 33.8 °F 27.0 °F 30.2 °F 87% 29.90 in 2.5 mi North 8.1 mph - 0.02 in Snow Light Snow
9:54 PM 33.1 °F 26.9 °F 30.0 °F 89% 29.93 in 2.0 mi North 6.9 mph - 0.02 in Snow Light Snow
10:02 PM 33.8 °F 27.7 °F 30.2 °F 87% 29.89 in 2.5 mi North 6.9 mph - 0.00 in Snow Light Snow
10:10 PM 33.8 °F 28.6 °F 30.2 °F 87% 29.90 in 5.0 mi North 5.8 mph - 0.00 in Snow Light Snow
10:54 PM 32.0 °F 23.6 °F 28.9 °F 88% 29.93 in 8.0 mi NNE 10.4 mph - 0.00 in   Overcast
11:37 PM 30.2 °F 22.6 °F 26.6 °F 86% 29.92 in 2.5 mi North 8.1 mph - 0.01 in Snow Light Snow
11:47 PM 30.2 °F 21.9 °F 26.6 °F 86% 29.92 in 6.0 mi North 9.2 mph - 0.01 in Snow Light Snow
11:54 PM 30.9 °F 22.2 °F 26.1 °F 82% 29.95 in 6.0 mi North 10.4 mph - 0.01 in Snow Light Snow